Temp
-17 -17 -17 -18 -17 -17 -17 -17 -17 -17 -16 -16 -16 -15 -15 -15 -14 -14 -13 -14 -13 -13 -13 -13 -13 -13 -13 -12 -12 -12 -10 -10 -11 -11 -11 -11 -11 -11 -10 -10 -11 -11 -11 -10 -10
-16 -17 -17 -17 -18 -17 -17 -17 -17 -17 -17 -17 -16 -15 -15 -15 -14 -14 -14 -13 -13 -13 -13 -13 -13 -13 -12 -12 -12 -12 -11 -11 -11 -12 -11 -11 -11 -10 -10 -10 -11 -11 -11 -11 -11
-17 -17 -18 -17 -17 -18 -18 -17 -17 -17 -17 -17 -16 -16 -15 -15 -14 -15 -14 -14 -14 -13 -13 -13 -13 -12 -12 -12 -12 -12 -11 -11 -11 -12 -11 -10 -11 -10 -10 -10 -10 -11 -11 -11 -11
-17 -17 -17 -18 -18 -18 -18 -18 -17 -17 -17 -17 -17 -16 -16 -16 -15 -15 -15 -14 -14 -14 -13 -13 -13 -12 -12 -12 -12 -11 -11 -11 -11 -11 -11 -11 -10 -10 -10 -10 -10 -11 -11 -9 -10
-17 -17 -17 -18 -18 -18 -18 -18 -18 -17 -17 -17 -17 -17 -16 -16 -16 -16 -15 -15 -15 -14 -14 -13 -13 -13 -12 -12 -12 -11 -11 -11 -11 -11 -10 -10 -11 -10 -10 -11 -11 -11 -11 -10 -9
-17 -17 -17 -17 -18 -18 -18 -19 -18 -18 -17 -17 -17 -17 -17 -16 -16 -16 -16 -15 -15 -15 -14 -14 -13 -13 -13 -12 -12 -11 -11 -11 -11 -11 -10 -11 -11 -10 -10 -10 -10 -10 -10 -10 -9
-18 -17 -18 -20 -18 -19 -19 -19 -19 -18 -18 -18 -18 -17 -17 -17 -16 -17 -16 -16 -15 -15 -14 -14 -14 -13 -13 -12 -12 -11 -11 -11 -11 -12 -11 -11 -10 -9 -10 -10 -9 -10 -10 -9 -9
-19 -20 -20 -20 -20 -20 -20 -19 -19 -19 -19 -18 -18 -17 -17 -17 -17 -17 -16 -16 -16 -15 -15 -14 -14 -14 -13 -13 -12 -12 -12 -12 -13 -12 -12 -11 -10 -11 -11 -10 -9 -9 -9 -9 -9
-21 -23 -23 -23 -22 -22 -20 -19 -19 -19 -19 -19 -18 -17 -18 -17 -17 -17 -17 -16 -16 -16 -16 -15 -15 -14 -14 -13 -13 -12 -12 -13 -13 -12 -12 -11 -10 -11 -10 -9 -9 -9 -9 -9 -10
-23 -25 -25 -26 -26 -25 -23 -20 -19 -19 -19 -19 -18 -18 -17 -18 -18 -18 -17 -17 -17 -16 -16 -16 -15 -14 -14 -13 -13 -14 -13 -12 -12 -12 -11 -10 -10 -10 -10 -9 -9 -10 -10 -9 -9
-24 -26 -27 -27 -27 -26 -25 -23 -21 -20 -20 -19 -18 -18 -18 -18 -18 -18 -18 -17 -17 -16 -16 -15 -15 -14 -15 -15 -15 -14 -13 -13 -13 -13 -12 -11 -11 -10 -11 -10 -10 -10 -10 -10 -10
-25 -27 -27 -27 -27 -26 -26 -24 -23 -21 -21 -20 -19 -18 -19 -19 -19 -18 -18 -17 -16 -16 -16 -15 -15 -16 -16 -15 -14 -13 -13 -14 -14 -13 -11 -12 -11 -11 -11 -11 -10 -11 -11 -11 -11
-26 -27 -27 -27 -27 -26 -26 -25 -23 -21 -20 -20 -19 -19 -19 -18 -18 -18 -18 -18 -17 -17 -16 -16 -16 -16 -15 -15 -15 -15 -14 -14 -14 -13 -13 -12 -11 -12 -12 -12 -11 -12 -12 -11 -11
-26 -27 -27 -27 -27 -27 -26 -24 -23 -20 -21 -20 -20 -19 -19 -18 -19 -18 -18 -18 -17 -17 -17 -16 -16 -16 -16 -16 -15 -15 -14 -14 -14 -14 -13 -13 -11 -12 -12 -12 -12 -12 -12 -12 -12
-26 -26 -26 -26 -26 -26 -26 -24 -24 -22 -21 -21 -20 -19 -19 -19 -18 -18 -18 -17 -17 -17 -17 -17 -16 -16 -16 -16 -15 -15 -15 -15 -15 -14 -14 -14 -12 -11 -13 -13 -13 -12 -12 -12 -12
-26 -26 -26 -26 -26 -26 -25 -23 -23 -22 -20 -21 -20 -19 -19 -18 -19 -18 -18 -17 -17 -17 -17 -16 -17 -17 -16 -16 -16 -15 -15 -15 -15 -14 -14 -14 -13 -12 -12 -12 -12 -12 -12 -12 -12
-26 -27 -26 -26 -26 -25 -24 -24 -22 -21 -21 -20 -19 -19 -19 -18 -19 -18 -18 -17 -17 -17 -17 -17 -17 -17 -16 -16 -15 -15 -15 -15 -14 -14 -14 -13 -13 -12 -13 -13 -12 -12 -13 -13 -13
-26 -26 -26 -26 -26 -25 -23 -22 -21 -21 -21 -20 -19 -19 -19 -19 -19 -18 -18 -17 -17 -17 -17 -17 -17 -16 -16 -16 -15 -15 -15 -15 -14 -14 -13 -13 -13 -12 -13 -13 -13 -14 -14 -13 -13
-25 -25 -26 -26 -26 -23 -22 -21 -21 -21 -20 -19 -19 -19 -18 -19 -19 -18 -18 -17 -17 -17 -17 -16 -16 -16 -16 -16 -15 -16 -15 -15 -14 -14 -13 -14 -13 -13 -14 -14 -14 -13 -13 -13 -13
-25 -25 -26 -25 -22 -21 -22 -22 -21 -20 -19 -19 -19 -19 -18 -18 -19 -18 -18 -17 -17 -17 -17 -17 -16 -16 -16 -16 -15 -15 -15 -15 -15 -15 -14 -13 -13 -13 -15 -14 -13 -13 -14 -15 -15
-25 -25 -25 -23 -22 -22 -22 -21 -21 -20 -20 -19 -19 -18 -18 -18 -18 -18 -18 -17 -17 -17 -16 -16 -16 -16 -16 -16 -16 -16 -16 -15 -15 -15 -14 -14 -13 -15 -15 -15 -14 -14 -15 -16 -17
-24 -23 -22 -22 -22 -22 -22 -21 -21 -20 -20 -19 -19 -19 -19 -18 -18 -18 -17 -17 -17 -17 -17 -16 -16 -16 -16 -16 -16 -16 -15 -15 -15 -15 -15 -14 -13 -15 -15 -15 -15 -15 -16 -17 -18
-24 -22 -22 -23 -22 -22 -21 -21 -21 -20 -20 -19 -19 -19 -18 -18 -18 -18 -18 -17 -17 -17 -17 -17 -17 -17 -16 -16 -16 -15 -15 -16 -16 -15 -15 -14 -15 -15 -15 -14 -15 -15 -17 -17 -18
-23 -22 -22 -22 -22 -22 -22 -21 -21 -20 -20 -19 -19 -19 -18 -18 -18 -18 -18 -18 -17 -17 -17 -17 -17 -17 -16 -16 -15 -16 -16 -16 -15 -15 -15 -15 -14 -15 -14 -14 -15 -16 -17 -18 -18
-22 -22 -22 -21 -22 -21 -21 -21 -20 -20 -20 -19 -19 -19 -19 -18 -18 -18 -18 -18 -17 -17 -17 -17 -17 -17 -16 -15 -16 -16 -16 -16 -16 -16 -14 -15 -15 -14 -15 -15 -15 -16 -18 -19 -20
-21 -21 -21 -21 -21 -21 -21 -21 -20 -20 -19 -19 -19 -19 -19 -19 -18 -18 -18 -18 -18 -18 -17 -17 -16 -16 -16 -16 -16 -16 -16 -16 -16 -15 -15 -15 -14 -14 -15 -15 -16 -16 -18 -19 -20
-20 -21 -21 -20 -20 -20 -20 -20 -20 -20 -20 -19 -19 -19 -19 -19 -18 -18 -18 -18 -18 -17 -17 -17 -16 -17 -17 -16 -17 -17 -16 -16 -16 -16 -16 -15 -15 -15 -15 -15 -16 -16 -18 -19 -20
Height
5683 5679 5676 5675 5674 5674 5674 5673 5674 5674 5676 5678 5681 5684 5687 5693 5699 5707 5716 5720 5726 5732 5736 5743 5749 5753 5757 5762 5766 5770 5772 5779 5788 5794 5801 5801 5799 5797 5797 5806 5809 5810 5812 5810 5817
5673 5670 5667 5664 5664 5663 5663 5664 5664 5665 5667 5669 5672 5675 5678 5684 5690 5700 5704 5711 5717 5724 5730 5735 5741 5745 5750 5756 5759 5763 5768 5776 5782 5786 5789 5791 5791 5791 5792 5801 5805 5804 5808 5808 5808
5665 5659 5655 5653 5651 5651 5652 5652 5654 5655 5657 5659 5662 5666 5670 5675 5683 5689 5694 5702 5708 5714 5720 5727 5732 5738 5743 5748 5753 5758 5763 5769 5773 5777 5780 5783 5786 5785 5788 5794 5801 5799 5801 5800 5801
5654 5648 5642 5638 5637 5636 5638 5639 5642 5644 5646 5649 5652 5656 5660 5667 5675 5679 5686 5693 5699 5705 5712 5718 5724 5730 5736 5741 5747 5752 5756 5759 5766 5769 5772 5777 5781 5781 5785 5789 5792 5794 5792 5796 5799
5637 5631 5626 5621 5620 5620 5621 5625 5628 5632 5635 5639 5642 5645 5652 5660 5666 5671 5677 5683 5690 5697 5703 5709 5715 5721 5728 5733 5738 5742 5747 5752 5757 5761 5763 5771 5775 5775 5778 5780 5785 5789 5786 5788 5791
5619 5612 5607 5602 5599 5600 5603 5608 5614 5619 5625 5628 5632 5637 5643 5652 5658 5663 5669 5676 5682 5688 5695 5701 5707 5713 5720 5724 5730 5735 5739 5744 5750 5755 5757 5764 5769 5768 5772 5774 5779 5779 5780 5782 5783
5592 5581 5571 5572 5574 5576 5582 5589 5597 5605 5612 5617 5622 5627 5635 5642 5650 5655 5661 5668 5675 5680 5686 5693 5699 5705 5712 5717 5722 5728 5733 5739 5743 5747 5749 5753 5760 5762 5764 5766 5770 5774 5774 5775 5778
5561 5547 5541 5537 5541 5548 5557 5567 5580 5591 5600 5606 5612 5619 5628 5633 5642 5647 5654 5662 5668 5674 5679 5685 5691 5697 5704 5710 5714 5720 5726 5730 5735 5737 5742 5744 5754 5758 5756 5759 5762 5765 5769 5769 5772
5532 5522 5517 5515 5515 5519 5528 5545 5560 5575 5588 5595 5602 5611 5620 5627 5635 5640 5648 5655 5662 5667 5673 5679 5685 5690 5696 5702 5707 5712 5718 5722 5726 5728 5732 5738 5743 5749 5749 5751 5756 5759 5762 5764 5765
5516 5509 5506 5505 5505 5506 5509 5521 5541 5560 5576 5583 5591 5604 5614 5622 5627 5635 5641 5649 5657 5661 5667 5673 5678 5683 5689 5695 5702 5706 5709 5713 5717 5720 5723 5729 5733 5740 5743 5744 5749 5752 5754 5756 5757
5507 5503 5503 5503 5502 5501 5500 5506 5525 5544 5561 5573 5589 5598 5607 5614 5621 5629 5636 5643 5650 5656 5662 5668 5674 5679 5685 5688 5692 5698 5703 5708 5711 5714 5718 5724 5728 5733 5735 5738 5740 5742 5745 5747 5750
5503 5502 5502 5502 5500 5498 5496 5497 5509 5532 5553 5567 5579 5589 5600 5607 5615 5624 5633 5641 5646 5652 5658 5664 5669 5673 5677 5682 5687 5692 5697 5703 5705 5706 5711 5716 5722 5724 5727 5731 5732 5734 5737 5740 5741
5502 5502 5502 5500 5498 5496 5493 5493 5506 5529 5548 5561 5573 5586 5597 5605 5613 5621 5629 5636 5642 5648 5654 5658 5664 5668 5673 5677 5683 5687 5692 5695 5699 5701 5704 5708 5714 5716 5720 5722 5724 5726 5727 5730 5732
5506 5504 5502 5500 5497 5493 5490 5496 5511 5528 5545 5557 5569 5582 5592 5600 5609 5616 5623 5631 5638 5644 5648 5653 5658 5664 5669 5674 5678 5683 5687 5691 5693 5697 5699 5701 5705 5711 5712 5714 5715 5717 5719 5720 5722
5507 5503 5499 5495 5496 5493 5492 5498 5516 5530 5544 5556 5568 5580 5589 5599 5607 5613 5620 5628 5635 5640 5647 5651 5656 5661 5665 5670 5674 5679 5683 5686 5688 5691 5695 5698 5698 5707 5707 5707 5707 5708 5710 5709 5709
5505 5499 5496 5494 5492 5492 5493 5505 5516 5532 5542 5554 5566 5576 5586 5596 5603 5610 5619 5627 5632 5637 5643 5648 5654 5659 5663 5667 5671 5676 5680 5682 5685 5688 5691 5693 5694 5696 5699 5699 5698 5697 5696 5696 5694
5499 5493 5491 5491 5491 5493 5499 5513 5527 5532 5542 5554 5565 5577 5586 5596 5602 5610 5618 5625 5631 5637 5642 5648 5652 5656 5661 5665 5670 5673 5676 5679 5681 5683 5685 5686 5689 5693 5687 5686 5685 5684 5681 5680 5678
5501 5495 5493 5492 5493 5498 5509 5525 5532 5535 5543 5556 5567 5578 5587 5595 5601 5610 5616 5622 5628 5635 5640 5646 5651 5655 5659 5663 5667 5670 5673 5674 5675 5677 5678 5678 5680 5683 5679 5675 5672 5671 5669 5667 5664
5504 5499 5497 5497 5499 5509 5522 5530 5535 5542 5550 5559 5569 5579 5586 5593 5602 5608 5616 5623 5628 5634 5640 5644 5650 5653 5657 5661 5664 5666 5668 5670 5670 5671 5670 5672 5672 5671 5669 5666 5661 5658 5653 5651 5648
5506 5500 5499 5502 5510 5521 5529 5532 5542 5548 5556 5566 5574 5581 5588 5594 5602 5608 5615 5622 5627 5633 5638 5643 5648 5651 5654 5657 5660 5661 5664 5666 5665 5664 5663 5662 5662 5661 5660 5655 5650 5645 5642 5637 5631
5509 5505 5506 5511 5525 5530 5534 5541 5548 5553 5562 5570 5577 5584 5589 5596 5602 5609 5615 5622 5626 5631 5636 5641 5645 5650 5652 5653 5655 5658 5659 5659 5659 5658 5654 5653 5652 5650 5646 5642 5638 5635 5628 5621 5614
5514 5515 5520 5527 5533 5537 5544 5548 5553 5558 5566 5573 5578 5583 5590 5596 5602 5608 5613 5620 5625 5630 5634 5639 5642 5645 5647 5649 5651 5653 5653 5653 5651 5651 5652 5646 5645 5645 5641 5635 5629 5624 5619 5613 5603
5523 5527 5533 5540 5544 5547 5551 5557 5562 5566 5571 5577 5582 5587 5591 5595 5601 5607 5613 5618 5623 5628 5632 5636 5638 5641 5643 5647 5648 5648 5648 5647 5645 5645 5647 5639 5640 5636 5627 5623 5618 5610 5601 5591 5583
5538 5545 5548 5549 5549 5554 5558 5563 5567 5571 5576 5580 5585 5589 5592 5597 5603 5609 5613 5617 5622 5625 5629 5632 5635 5638 5641 5643 5644 5644 5642 5641 5641 5641 5640 5638 5633 5629 5623 5616 5610 5600 5588 5576 5568
5555 5558 5556 5557 5559 5561 5565 5568 5573 5577 5580 5584 5588 5592 5595 5599 5603 5607 5612 5616 5620 5624 5627 5631 5634 5636 5637 5637 5639 5640 5639 5638 5636 5635 5632 5632 5625 5620 5615 5609 5600 5590 5577 5565 5558
5564 5565 5567 5567 5568 5569 5572 5575 5578 5581 5585 5589 5592 5595 5598 5602 5605 5608 5611 5615 5619 5622 5625 5628 5631 5632 5632 5633 5635 5635 5634 5634 5633 5632 5629 5625 5622 5616 5610 5603 5593 5583 5571 5561 5553
5576 5575 5576 5575 5576 5577 5578 5581 5584 5587 5590 5592 5594 5597 5599 5602 5605 5608 5611 5614 5617 5621 5623 5626 5627 5628 5629 5630 5631 5632 5632 5631 5631 5628 5625 5623 5618 5614 5607 5598 5590 5582 5571 5560 5553
Wind_Speed
31 33 38 37 35 34 33 31 33 32 34 38 38 39 44 51 50 50 49 49 48 47 46 43 40 40 41 41 40 41 42 37 30 28 23 27 32 37 39 28 29 31 27 30 25
43 36 34 39 39 38 36 36 33 34 33 34 38 39 40 44 48 48 50 50 50 47 48 47 46 45 43 43 43 43 41 35 31 30 30 33 37 40 40 29 26 34 29 30 32
45 45 41 37 41 41 41 38 37 35 35 34 35 40 41 42 46 45 50 50 50 50 48 49 50 48 47 46 45 44 41 38 36 36 36 35 37 41 40 33 28 33 32 35 35
49 47 46 44 42 44 43 44 40 38 36 37 36 38 39 40 44 44 46 49 49 50 49 49 49 50 49 47 46 45 43 43 39 40 39 35 35 39 38 34 35 34 40 33 33
59 53 51 49 46 46 47 46 45 42 39 36 37 34 39 40 41 43 39 43 49 50 48 49 49 49 50 49 49 48 46 45 43 43 42 36 33 37 36 34 37 35 40 37 32
59 55 52 49 50 50 49 49 47 45 41 38 36 34 39 39 39 41 42 42 42 47 49 48 49 49 49 49 50 49 47 46 43 41 43 37 33 38 38 35 33 36 38 36 32
73 65 64 62 54 54 53 51 48 45 42 39 35 35 35 40 39 38 39 40 41 42 45 47 47 48 48 47 48 48 46 43 42 39 41 39 37 40 37 36 36 36 36 36 33
69 68 60 57 57 62 57 56 52 47 41 39 36 36 33 39 41 37 39 38 39 39 41 43 46 48 48 47 47 46 45 44 38 42 41 41 36 38 38 37 37 36 35 36 33
62 48 41 40 39 43 59 60 56 50 40 32 37 37 36 37 38 38 38 36 36 36 37 40 32 43 44 46 46 46 44 42 41 42 43 43 40 38 42 39 36 35 34 34 35
45 34 26 21 18 23 32 59 61 51 41 38 45 38 35 33 37 37 37 36 38 35 35 39 42 42 41 42 41 39 44 45 44 45 45 45 42 40 42 42 35 35 36 36 34
35 16 5 10 18 22 18 34 55 56 45 52 42 35 34 33 37 36 36 33 33 34 35 37 36 34 29 33 37 41 43 42 42 43 44 42 41 39 40 42 39 39 38 38 37
24 1 3 8 12 17 24 26 47 53 52 43 42 38 34 32 35 35 36 33 31 32 34 35 33 27 30 34 36 39 38 37 38 42 44 41 40 40 41 41 42 41 41 39 40
17 4 6 10 11 16 18 19 45 53 44 45 43 39 33 32 33 35 32 30 30 30 28 28 26 29 31 31 26 31 34 33 34 35 36 38 38 35 38 39 41 42 42 42 43
23 9 14 13 20 18 7 26 55 59 35 49 44 38 36 35 34 33 33 32 29 27 27 27 26 27 26 25 25 27 27 26 25 26 29 33 38 30 34 37 39 39 41 40 41
21 18 14 17 13 10 8 39 50 38 36 44 44 37 34 35 35 34 33 30 27 24 22 22 22 23 22 24 24 23 21 19 23 24 25 25 33 29 30 31 34 37 39 43 47
29 23 18 17 11 9 19 48 33 38 29 36 44 39 34 34 35 35 31 29 25 24 22 23 19 20 20 20 19 17 17 19 21 22 24 24 29 32 30 34 38 43 47 50 54
28 25 16 8 3 10 35 50 40 27 35 42 44 35 30 29 32 34 29 26 25 22 20 20 21 21 19 18 17 16 17 19 22 23 24 27 29 29 35 37 41 46 50 52 54
30 20 11 6 5 23 41 50 22 32 36 38 38 35 28 29 32 29 28 27 25 23 22 21 22 20 18 17 17 16 17 20 23 24 26 30 31 31 37 41 41 43 45 47 47
32 21 11 6 15 34 53 28 28 29 35 38 37 30 28 30 31 29 29 25 24 22 22 22 21 19 18 18 17 15 19 22 24 27 29 30 31 34 36 35 38 41 46 47 49
31 20 6 15 48 56 34 27 22 25 29 32 30 29 26 26 31 27 27 26 24 23 23 20 19 19 18 17 18 20 20 22 23 27 29 31 32 32 28 29 34 38 39 40 42
21 14 17 41 50 34 29 25 19 36 30 27 22 22 23 23 28 24 26 26 25 24 22 20 19 17 18 20 20 19 18 21 23 26 31 33 27 31 29 32 36 36 40 39 45
15 23 59 51 35 27 21 23 23 33 30 27 25 28 24 25 26 24 26 25 25 23 21 20 19 18 19 17 17 16 18 21 25 27 21 29 26 26 30 34 37 39 44 44 49
30 36 49 34 22 29 26 25 23 20 22 20 19 21 22 28 30 24 23 25 24 23 21 18 18 18 16 15 15 16 19 22 22 24 18 29 29 29 32 34 37 45 50 52 51
41 44 25 30 26 26 20 25 19 19 18 16 15 20 17 25 28 23 22 22 22 20 19 18 16 14 14 14 15 16 19 20 21 21 23 19 23 22 31 35 40 47 43 42 43
42 27 22 22 23 27 25 25 18 19 15 13 12 17 15 17 24 26 25 22 20 19 17 15 13 13 16 17 14 15 15 17 18 19 20 16 24 31 34 32 41 44 42 37 25
21 18 21 29 26 24 20 17 16 13 10 9 10 11 16 15 16 17 19 20 19 18 16 14 14 16 17 16 13 13 12 15 13 14 18 20 21 26 26 32 27 34 38 35 26
16 16 17 19 21 20 21 18 16 11 9 8 8 10 12 14 16 18 19 17 17 16 14 14 15 14 15 11 11 10 9 8 11 15 16 18 21 20 23 24 19 21 24 15 12
Wind_Direction
313 294 282 279 273 269 265 262 258 258 243 236 240 239 233 230 226 227 227 227 225 223 223 220 221 219 219 220 223 225 230 229 230 231 228 238 241 249 255 243 240 248 243 258 254
323 306 289 277 270 265 263 261 256 254 251 249 238 236 235 230 228 226 227 226 226 224 224 223 220 221 221 225 227 230 234 234 235 235 227 229 241 248 252 256 246 250 247 253 261
319 309 296 281 272 264 259 258 255 251 249 248 247 238 233 231 227 228 227 225 226 224 224 224 224 222 223 224 229 232 235 238 236 239 232 230 238 248 256 258 249 256 252 248 252
316 309 299 285 272 266 259 255 253 251 246 246 245 243 234 230 227 228 227 226 226 227 224 226 225 226 226 226 230 234 237 240 240 242 241 234 238 249 253 262 260 250 255 256 254
315 303 294 285 273 262 259 255 250 247 247 243 244 243 234 227 226 223 225 227 227 226 226 227 226 226 227 228 229 231 235 239 241 244 244 238 235 243 245 248 260 255 254 256 256
311 305 295 284 271 262 254 252 248 244 243 244 240 241 231 225 224 224 226 226 226 227 226 228 228 228 228 228 230 232 232 238 242 244 247 243 237 238 244 252 252 252 253 254 252
313 300 287 274 258 251 249 244 240 239 240 241 239 233 229 225 220 222 222 224 227 226 227 226 227 229 228 230 231 233 236 240 242 240 241 239 232 239 240 246 252 253 256 258 253
305 297 290 280 265 250 239 235 234 229 232 238 236 233 224 221 218 216 219 221 225 225 228 229 229 228 229 230 232 234 237 236 238 237 236 240 235 238 242 243 251 253 252 256 254
312 306 293 280 272 254 240 228 225 223 223 229 236 230 221 220 216 213 217 215 223 223 226 226 231 231 229 230 232 234 237 237 234 237 236 239 238 237 241 243 247 253 255 252 253
319 311 299 296 297 274 244 226 222 218 215 204 221 228 218 217 213 210 213 212 217 222 223 223 220 227 227 230 233 239 239 238 236 236 236 237 238 239 240 243 245 248 248 247 246
326 309 33 28 359 331 270 220 213 218 202 208 220 220 213 213 210 209 209 211 210 218 222 226 225 228 232 231 231 234 238 241 244 243 242 244 244 246 246 240 241 244 244 244 246
330 200 341 347 1 348 337 220 195 195 192 208 207 205 205 211 209 206 207 209 210 215 218 223 222 223 226 230 233 237 239 242 243 245 241 242 241 245 246 244 244 246 246 245 245
355 235 317 326 321 323 294 214 181 169 177 198 197 198 209 208 204 202 204 205 208 210 213 217 214 218 224 227 230 238 239 241 242 247 250 246 241 246 246 247 246 249 250 249 247
14 339 319 320 303 313 305 176 167 156 171 187 193 194 204 202 201 200 199 201 204 207 208 212 212 215 218 223 226 233 238 242 247 246 251 253 246 245 247 248 248 249 250 251 251
345 337 331 314 315 289 193 169 161 152 166 184 187 188 196 199 200 199 200 199 200 204 204 208 208 212 211 215 219 224 228 228 234 242 246 254 257 239 241 249 254 254 253 254 256
328 326 319 312 323 236 174 165 131 146 141 171 183 186 192 195 201 194 198 197 196 198 193 196 193 202 202 207 209 212 218 232 237 243 247 248 258 258 260 259 260 259 260 261 263
332 320 313 318 316 183 168 166 145 130 150 179 180 187 193 194 199 191 195 196 196 190 184 179 185 191 198 204 207 216 229 242 249 253 260 261 261 263 276 277 273 271 273 274 276
14 23 27 25 134 156 167 145 127 138 154 172 177 184 187 187 188 194 193 190 190 184 184 181 191 196 204 212 221 227 242 253 262 265 264 267 270 272 275 278 282 282 281 281 278
6 360 9 97 133 136 138 118 113 140 162 168 173 180 182 187 186 190 192 192 192 186 190 192 194 207 215 221 230 240 251 259 266 273 274 280 283 285 287 288 289 288 286 285 283
357 11 68 118 131 129 118 92 109 137 155 169 181 179 180 188 181 192 192 194 194 195 198 201 204 212 223 232 240 249 260 268 276 286 288 287 292 289 304 295 287 283 286 292 295
7 62 111 122 135 125 92 101 110 136 147 159 171 176 175 184 184 191 193 198 198 204 202 206 213 216 229 240 252 263 273 282 287 288 288 299 295 324 308 297 292 299 297 298 302
79 102 129 120 115 92 97 113 129 123 134 146 159 173 176 183 181 187 193 197 201 204 207 209 219 229 240 252 263 277 283 285 283 288 301 299 298 311 296 293 305 306 306 300 297
106 123 130 123 111 111 122 124 130 131 136 136 156 163 177 177 186 187 187 194 198 205 212 218 229 242 250 259 276 279 281 285 287 298 317 302 311 309 303 313 317 312 309 302 300
111 119 101 101 112 121 135 125 141 139 137 143 157 170 172 180 186 192 194 196 200 209 218 227 235 246 258 268 269 276 280 282 300 307 296 299 315 314 315 311 317 315 315 307 301
114 98 89 112 105 119 134 146 143 140 141 144 158 176 168 176 189 197 202 205 208 216 225 232 235 254 264 265 266 269 276 285 302 302 311 326 328 321 321 319 317 316 321 327 315
114 95 109 124 119 116 124 129 137 135 145 159 168 180 184 181 181 185 196 206 212 216 220 231 244 251 260 268 271 282 288 309 309 315 329 329 335 327 328 326 332 332 325 325 321
140 126 123 129 140 133 126 126 127 135 147 153 167 186 195 201 202 206 210 210 218 222 230 233 236 247 259 262 274 287 293 298 299 328 349 344 336 344 335 322 346 345 347 344 8